星链-3868 (STARLINK-3868 )

导读 | 星芒AI

STARLINK-3868 是 SpaceX Starlink 卫星互联网项目中的一颗低轨卫星,属于第 12 批次发射的星链卫星群。该卫星于 2023 年发射,运行在约 550 公里的轨道高度,旨在为全球用户提供高速互联网服务。作为星链计划的一部分,STARLINK-3868 采用先进通信技术,支持宽带连接,尤其服务于偏远和网络基础设施不足的地区。该卫星具备自动避障能力,以减少与其他卫星或太空碎片的碰撞风险。

基本信息
目录编号:
52649
目录名称:
STARLINK-3868
国际标识:
2022-052BD
轨道中心:
EARTH
卫星名称:
星链-3868
卫星全名:
星链-3868 (STARLINK-3868 )
卫星状态:
在轨 (已飞行1270 天)
发射日期:
2022-05-14 UTC
国别 :
美国 (US)
星等 :
--
轨道信息
数据来源 国际轨道数据
星历时间: 2025-11-04T12:04:04+0800
16小时前
查看轨道信息
半长轴: 6917.856km
偏心率: 0.0001057
轨道倾角: 53.214°
近地点辐角 95.329°
升交点赤经 102.453°
平近点角 264.782°
近地点: 538.989km
远地点: 540.453km
周期: 95.437分钟
每日圈数: 15.088483
详细信息
固有亮度:
5
最大亮度:
2.5
卫星平台:
Starlink v1.5
覆盖范围:
全球
运营商:
太空探索技术公司
运营商所在国:
美国
制造商(研发单位):
太空探索技术公司
制造商所在国:
美国
使用方式:
暂无
卫星简介
星链(Starlink)计划是由太空探索技术公司(SpaceX)提出的一个巨型低轨卫星互联网星座项目,计划在2019年至2024年间在太空搭建由约1.2万颗卫星组成的“星链”网络,其中1584颗将部署在地球上空550千米处的近地轨道,并从2020年开始工作。该卫星仍在工作。
2D轨道图
3D轨道图
轨道高度分析图
轨道倾角分析图
轨道综合分析图
查看轨道综合分析图